This is the latest recevied weather packets stored in our database for station/object KO4ZGL-13. If no packets are shown the sender has not sent any weather packets the latest 10 day(s).
| Time | Temp. | Humidity | Pressure | Rain* | Wind** | Luminosity | Snow |
|---|---|---|---|---|---|---|---|
| 1788219160 | 28.89° C | 90% | 1018.1 hPa | 0 mm | - | 12 W/m² | - |
| 1788218855 | 28.89° C | 89% | 1018.2 hPa | 0 mm | - | 18 W/m² | - |
| 1788218552 | 28.89° C | 89% | 1018.3 hPa | 0 mm | - | 19 W/m² | - |
| 1788218247 | 28.89° C | 89% | 1018.1 hPa | 0 mm | - | 24 W/m² | - |
| 1788217944 | 28.89° C | 88% | 1018.3 hPa | 0 mm | - | 30 W/m² | - |
| 1788217639 | 28.89° C | 88% | 1018.5 hPa | 0 mm | - | 38 W/m² | - |
| 1788217334 | 28.89° C | 88% | 1018.2 hPa | 0 mm | - | 42 W/m² | - |
| 1788217032 | 28.89° C | 88% | 1018.3 hPa | 0 mm | - | 41 W/m² | - |
| 1788216728 | 28.89° C | 89% | 1018.3 hPa | 0 mm | - | 44 W/m² | - |
| 1788216417 | 29.44° C | 88% | 1018.2 hPa | 0 mm | - | 46 W/m² | - |
| 1788216112 | 29.44° C | 87% | 1018.2 hPa | 0 mm | - | 52 W/m² | - |
| 1788215808 | 30° C | 87% | 1018 hPa | 0 mm | - | 55 W/m² | - |
| 1788215504 | 30° C | 86% | 1018.1 hPa | 0 mm | - | 59 W/m² | - |
| 1788215200 | 30° C | 85% | 1018.2 hPa | 0 mm | - | 62 W/m² | - |
| 1788214895 | 30° C | 85% | 1018.1 hPa | 0 mm | - | 64 W/m² | - |
| 1788214591 | 30° C | 85% | 1018.4 hPa | 0 mm | - | 77 W/m² | - |
| 1788214286 | 30° C | 84% | 1018.2 hPa | 0 mm | - | 72 W/m² | - |
| 1788213981 | 30.56° C | 84% | 1018.2 hPa | 0 mm | - | 148 W/m² | - |
| 1788213676 | 30.56° C | 83% | 1018.2 hPa | 0 mm | - | 111 W/m² | - |
| 1788213371 | 30.56° C | 83% | 1018 hPa | 0 mm | - | 124 W/m² | - |
| 1788213067 | 31.11° C | 81% | 1018.2 hPa | 0 mm | - | 154 W/m² | - |
| 1788212764 | 31.67° C | 80% | 1017.9 hPa | 0 mm | - | 164 W/m² | - |
| 1788212460 | 32.22° C | 79% | 1018.1 hPa | 0 mm | - | 161 W/m² | - |
| 1788212157 | 32.78° C | 76% | 1017.9 hPa | 0 mm | - | 247 W/m² | - |
| 1788211852 | 32.22° C | 77% | 1018.2 hPa | 0 mm | - | 303 W/m² | - |
* Rain latest hour (hover to see other rain measurements)
** Current wind speed in m/s (hover to see current wind gust speed)